Flag for Germany Weather past 2 weeks in Landsberg am Lech, Bavaria, Germany

Now
59 °F

Light rain. Passing clouds.


Feels Like: 59 °F
Forecast: 53 / 82 °F
Wind: 5 mph from Southwest

Location: Landsberg

Current Time: Aug 2, 2015 at 7:01:15 AM

Latest Report: Aug 2, 2015 at 6:20 AM


Visibility: 4 mi

Pressure: 30.09 "Hg (28.05 "Hg at 593m altitude)

Humidity: 94%

Dew point: 57 °F

Location of Landsberg am LechLocation

Historic Weather in Landsberg am Lech — Graph

°F

Landsberg am Lech temperature yesterday

Maximum temperature yesterday: 66 °F (at 2:20 PM)
Minimum temperature yesterday: 55 °F (at 5:20 AM)
Average temperature yesterday: 62 °F

Past Weeks' High & Low Weather Summary

 TemperatureHumidityPressure
High91 °F (Jul 22, 3:20 PM)94% (Jul 19, 2:20 AM)30.18 "Hg (Jul 19, 2:20 AM)
Low46 °F (Jul 30, 5:20 AM)29% (Jul 26, 5:20 PM)29.77 "Hg (Jul 24, 7:20 PM)
Average67 °F64%29.98 "Hg
* Reported Jul 18 5:20 AM — Aug 2 5:20 AM, Landsberg am Lech, Weather by CustomWeather, © 2015

Note: Actual official high and low records may vary slightly from our data, if they occured in-between our weather recording intervals... More about our weather records

Advertising

Landsberg am Lech weather history for previous 24 hours

 ConditionsComfort  
Time TempWeatherWind HumidityBarometerVisibility
5:20 AM
Sun, Aug 2
61 °FLight rain. Passing clouds.5 mph88%30.09 "HgN/A
4:20 AM61 °FPassing clouds.3 mph88%30.09 "HgN/A
3:20 AM61 °FPassing clouds.2 mph88%30.09 "HgN/A
2:20 AM61 °FPassing clouds.3 mph83%30.09 "HgN/A
1:20 AM61 °FPassing clouds.6 mph88%30.09 "HgN/A
12:20 AM63 °FPassing clouds.3 mph77%30.07 "HgN/A
11:20 PM
Sat, Aug 1
63 °FPassing clouds.5 mph77%30.07 "HgN/A
10:20 PM63 °FPassing clouds.1 mph73%30.07 "HgN/A
9:20 PM63 °FPartly sunny.2 mph73%30.04 "HgN/A
8:20 PM64 °FPartly sunny.1 mph68%30.04 "HgN/A
7:20 PM66 °FBroken clouds.3 mph60%30.04 "HgN/A
6:20 PM66 °FPartly sunny.6 mph64%30.01 "HgN/A
5:20 PM66 °FPartly sunny.2 mph64%30.01 "HgN/A
4:20 PM66 °FPartly sunny.1 mph60%30.04 "HgN/A
3:20 PM64 °FPartly sunny.3 mph64%30.01 "HgN/A
2:20 PM66 °FPartly sunny.8 mph60%30.04 "HgN/A
1:20 PM63 °FLight rain. Mostly cloudy.9 mph68%30.04 "HgN/A
12:20 PM61 °FLight rain. Partly sunny.16 mph72%30.04 "HgN/A
11:20 AM64 °FLight rain. Broken clouds.20 mph60%30.01 "HgN/A
10:20 AM64 °FBroken clouds.21 mph60%30.01 "HgN/A
9:20 AM61 °FBroken clouds.12 mph68%29.98 "HgN/A
8:20 AM61 °FBroken clouds.5 mph68%29.95 "HgN/A
7:20 AM57 °FBroken clouds.1 mph72%29.92 "HgN/A
Weather by CustomWeather, © 2015

See weather overviewHow to use our weather pages